ミュラー第5彗星

173P/Mueller 5 (2021)

English version
Home page
Updated on January 12, 2021

---------------------------------------------------------------------

・ プロフィール

・ 写真集

・ 軌道要素

Epoch 2021 Dec. 12.0 TT = JDT 2459560.5
T 2021 Dec. 16.71953 TT                                 Rudenko
q   4.2170582            (2000.0)            P               Q
n   0.07230306     Peri.   29.18075     -0.61743795     -0.73539171
a   5.7064359      Node   100.40029     +0.65538892     -0.67723602
e   0.2609996      Incl.   16.49277     +0.43501235     -0.02346086
P  13.6
From 846 observations 1992 Sept. 25-2020 Sept. 20, mean residual 1".1.

・ 光度変化

        m1 = -14 + 5 logΔ + 45 log r(t + 600)

---------------------------------------------------------------------

軌道要素はM.P.E.C. 2020-S188に掲載されたものです。
光度グラフはComet for Windowsで作成したものです。

---------------------------------------------------------------------

Copyright(C) Seiichi Yoshida (comet@aerith.net). All rights reserved.